Hourly Data Report for April 21, 2017

KENORA A
ONTARIO

49°47'18.000" N
94°21'47.000" W
409.70 m
6034076
71850
YQK

Download Data

Hourly Data (April 2017)
Hourly Data Report for April 21, 2017
TIME
LST
Temp Definition
°C
Dew Point Definition
°C
Rel Hum Definition
%
Precip. Amount Definition
mm

Wind Dir Definition
10's deg

Wind Spd Definition
km/h
Visibility Definition
km
Stn Press Definition
kPa
Hmdx Definition


Wind Chill Definition


Weather Definition


00:00 5.6 1.7 76   36 10 24.1 97.16     Mainly Clear
01:00 4.8 1.7 80   35 8 24.1 97.19     LegendNANA
02:00 4.4 1.4 81   35 10 24.1 97.19     LegendNANA
03:00 3.2 1.1 86   35 9 24.1 97.25     Clear
04:00 3.3 1.0 85   35 11 24.1 97.28     LegendNANA
05:00 2.3 0.7 89   36 9 24.1 97.32     LegendNANA
06:00 2.7 0.8 87   1 9 24.1 97.34     Clear
07:00 4.4 1.4 81   36 9 24.1 97.41     LegendNANA
08:00 6.9 1.8 70   36 2 24.1 97.42     LegendNANA
09:00 9.5 1.2 56   4 5 24.1 97.42     Mainly Clear
10:00 10.9 0.7 49   36 16 24.1 97.41     LegendNANA
11:00 11.6 0.7 47   7 5 24.1 97.39     LegendNANA
12:00 12.7 1.1 45   23 4 24.1 97.37     Mainly Clear
13:00 14.2 0.5 39   33 15 24.1 97.35     LegendNANA
14:00 14.6 0.9 39   36 2 24.1 97.32     LegendNANA
15:00 14.9 0.0 36   27 9 24.1 97.29     Mainly Clear
16:00 15.7 -0.4 33   25 20 24.1 97.25     LegendNANA
17:00 15.6 -2.3 29   26 21 24.1 97.27     LegendNANA
18:00 14.6 0.5 38   21 10 24.1 97.29     Mainly Clear
19:00 13.2 0.6 42   26 3 24.1 97.29     LegendNANA
20:00 12.6 -2.4 35   31 6 24.1 97.29     LegendNANA
21:00 12.3 -2.3 36   29 9 24.1 97.29     Mainly Clear
22:00 9.8 -1.9 44   26 7 24.1 97.26     LegendNANA
23:00 10.0 -1.4 45   27 9 24.1 97.21     LegendNANA

Notes on Data Quality.

Legend

  • E = Estimated
  • M = Missing
  • NA = Not Available*
  • [empty] = Indicates an unobserved value
Date modified: